Regional Weather Roundup
Issued by NWS Cleveland, OH

Home | Current Version | Previous Version | Text Only | Print | Product List | Glossary Off
Versions: 1 2 3 4 5 6 7 8 9 10 11 12 13 14 15 16 17 18 19 20 21 22 23 24 25 26 27 28 29 30 31 32 33 34 35 36 37 38 39 40 41 42 43 44 45 46 47 48 49 50

000
ASUS41 KCLE 310102
RWRCLE
OHIO REGIONAL WEATHER ROUNDUP
NATIONAL WEATHER SERVICE CLEVELAND, OH
900 PM EDT MON MAY 30 2016

NOTE: "FAIR" INDICATES FEW OR NO CLOUDS BELOW 12,000 FEET WITH NO
SIGNIFICANT WEATHER AND/OR OBSTRUCTIONS TO VISIBILITY.

OHZ001>008-015>018-024>027-034-035-043-044-310200-
   NORTHWEST OHIO

CITY           SKY/WX    TMP DP  RH WIND       PRES   REMARKS
DEFIANCE       CLEAR     79  52  38 NW3       29.96S
FINDLAY        CLEAR     81  50  33 NW5       29.95S
TOLEDO EXPRESS CLEAR     79  50  36 N5        29.95S
TOLEDO EXEC    CLEAR     80  51  36 NW6       29.96R
LIMA           CLEAR     78  56  46 CALM      29.97R
$$

OHZ009>014-019>023-028>033-038-089-310200-
   NORTHEAST OHIO

CITY           SKY/WX    TMP DP  RH WIND       PRES   REMARKS
CLE-HOPKINS    PTCLDY    77  53  43 E6        29.98S
CLE-LAKEFRONT  CLEAR     78  53  41 CALM      29.95F
CUY CO. ARPT   PTCLDY    73  59  60 CALM      29.98S
LORAIN-ELYRIA  CLEAR     74  58  57 CALM      29.97S
ASHTABULA      CLEAR     68  60  75 CALM      29.99S
AKRON-CANTON   PTCLDY    73  55  53 NE6       29.98S
WOOSTER        CLEAR     74  57  55 NE5       29.99R
MANSFIELD      CLEAR     75  55  49 CALM      29.98S
YOUNGSTOWN     PTCLDY    71  53  52 CALM      29.99S
$$

OHZ042-051>053-060>062-070>072-077>081-310200-
  SOUTHWEST OHIO

CITY           SKY/WX    TMP DP  RH WIND       PRES   REMARKS
CINC-COVINGTON PTCLDY    77  57  50 W3        29.98S
CINC-LUNKEN    CLEAR     71  65  81 S3        29.97R
HAMILTON       CLEAR     72  64  76 CALM      29.97S
DAYTON         PTCLDY    81  53  37 CALM      29.98S
WRIGHT-PAT AFB NOT AVBL
DAYTON GENERAL CLEAR     77  54  44 CALM      29.98R
WILMINGTON     CLEAR     76  55  48 N3        29.98S
$$

OHZ036-037-039>041-045>050-054>059-063>069-073>076-082>088-310200-
  CENTRAL AND SOUTHEAST OHIO

CITY           SKY/WX    TMP DP  RH WIND       PRES   REMARKS
COLUMBUS       MOCLDY    79  53  40 N3        29.96S
OSU AIRPORT    CLEAR     76  54  46 CALM      29.97S
BOLTON FIELD   NOT AVBL
RICKENBACK AFB NOT AVBL
NEWARK         CLEAR     74  59  59 CALM      29.97R
MARION         CLEAR     76  54  46 CALM      29.97S
LANCASTER      CLEAR     69  57  65 CALM      29.98R
ZANESVILLE     CLEAR     79  57  46 CALM      29.97S
NEW PHILLY     PTCLDY    77  60  55 CALM      29.98R
$$




USA.gov is the U.S. government's official web portal to all federal, state and local government web resources and services.